Regional Weather Roundup
Issued by NWS

Home | Current Version | Previous Version | Graphics & Text | Print | Product List | Glossary On
Versions: 1 2 3 4 5 6 7 8 9 10 11 12 13 14 15 16 17 18 19 20 21 22 23 24 25 26 27 28 29 30 31 32 33 34 35 36 37 38 39 40 41 42 43 44 45 46 47 48 49 50
497
ASUS43 KOAX 240910
RWRNE

WEATHER ROUNDUP FOR NEBRASKA
NATIONAL WEATHER SERVICE OMAHA NE
400 AM CDT MON JUL 24 2017

NOTES: SATELLITE DATA IS BEING USED TO AUGMENT CLOUD COVER ABOVE
       12000 FEET.
       "FAIR" INDICATES FEW OR NO CLOUDS BELOW 12,000 FEET WITH NO
       SIGNIFICANT WEATHER AND/OR OBSTRUCTIONS TO VISIBILITY.


NEZ001>004-019>022-054>056-241000-
NEBRASKA PANHANDLE

CITY           SKY/WX    TMP DP  RH WIND       PRES   REMARKS
SCOTTSBLUFF    PTCLDY    78  52  40 S12       29.98F
ALLIANCE       CLEAR     69  53  56 S9        30.00S
CHADRON        CLEAR     80  50  34 S17       29.90F
GORDON         FAIR      68  56  65 S5        29.98S
KIMBALL        CLEAR     69  55  60 S12       30.08S
SIDNEY         CLEAR     69  54  58 SW13      30.06F
$$

NEZ057>060-069>072-079>082-241000-
SOUTHWEST NEBRASKA

CITY           SKY/WX    TMP DP  RH WIND       PRES   REMARKS
NORTH PLATTE   PTCLDY    66  63  90 SE8       30.02F
IMPERIAL       CLEAR     68  54  60 SW7       30.03F
LEXINGTON      CLEAR     69  64  84 SE6       30.03S
MCCOOK         CLEAR     69  66  90 SE8       30.01F
OGALLALA       CLEAR     67  56  68 CALM      30.02F
$$

NEZ005>010-023>029-035>040-094-241000-
NORTH CENTRAL NEBRASKA

CITY           SKY/WX    TMP DP  RH WIND       PRES   REMARKS
VALENTINE      CLEAR     69  56  62 SE6       30.01S
AINSWORTH      CLEAR     66  59  77 S9        30.02S
BROKEN BOW     CLEAR     65  62  90 SE5       30.02F
O`NEILL        CLEAR     64  60  85 SE5       30.02F
ORD            CLEAR     66  58  75 SE3       30.01F
THEDFORD       CLEAR     67  62  84 SE5       30.03S
$$

NEZ041-046>049-061>064-073>077-083>087-241000-
SOUTH CENTRAL NEBRASKA

CITY           SKY/WX    TMP DP  RH WIND       PRES   REMARKS
GRAND ISLAND   CLEAR     65  62  90 SE3       30.02S
AURORA         CLEAR     64  62  94 E5        30.02S
HASTINGS       CLEAR     69  60  73 SE7       30.03S
HEBRON         CLEAR     67  63  87 CALM      30.00S
HOLDREGE       CLEAR     66  62  85 SE8       30.02S
KEARNEY        CLEAR     66  62  87 SE6       30.02F
YORK           CLEAR     64  63  94 E5        30.02S
$$

NEZ011>018-030>034-042>045-241000-
NORTHEAST NEBRASKA

CITY           SKY/WX    TMP DP  RH WIND       PRES   REMARKS
NORFOLK        CLEAR     61  58  90 E3        30.02F
ALBION         CLEAR     62  58  90 CALM      30.03S
BLAIR          CLEAR     64  60  87 CALM      30.01S
COLUMBUS       CLEAR     60  58  92 E6        30.02F
FREMONT        CLEAR     63  60  91 CALM      30.02S
TEKAMAH        CLEAR     60  57  89 N5        30.00F
WAYNE          CLEAR     57  57  99 CALM      30.03F
$$

NEZ050>053-065>068-078-088>093-241000-
SOUTHEAST NEBRASKA

CITY           SKY/WX    TMP DP  RH WIND       PRES   REMARKS
LINCOLN        CLEAR     66  61  84 CALM      30.01S
OMAHA EPPLEY   CLEAR     64  59  83 CALM      30.01R
BEATRICE       CLEAR     66  62  85 NE5       30.00S
FALLS CITY     CLEAR     66  62  87 NE5       29.98S
NEBRASKA CITY  CLEAR     64  64 100 CALM      30.01S
PLATTSMOUTH    CLEAR     65  60  86 CALM      30.01R
$$

NEZ044-045-051>053-067-241000-
OMAHA AREA

CITY           SKY/WX    TMP DP  RH WIND       PRES   REMARKS
OMAHA EPPLEY   CLEAR     64  59  83 CALM      30.01R
BLAIR          CLEAR     64  60  87 CALM      30.01S
FREMONT        CLEAR     63  60  91 CALM      30.02S
MILLARD        CLEAR     67  63  86 CALM      30.01R
OFFUTT AFB     CLEAR     61  58  91 CALM      30.00R
PLATTSMOUTH    CLEAR     65  60  86 CALM      30.01R
WAHOO          FAIR      62  60  94 CALM      30.01S
$$




USA.gov is the U.S. government's official web portal to all federal, state and local government web resources and services.